Location: Unspecified
(42.1900°N, 71.3291°W)
Time: 04:56:23
(UTC-04:00)

Resurs 1-4 Rocket - Visible Passes

Search period start: 24 July 2017 00:00
Search period end: 03 August 2017 00:00
Orbit: 800 x 814 km, 98.5° (Epoch: 23 July)

Date Brightness Start Highest point End Pass type
(mag) Time Alt. Az. Time Alt. Az. Time Alt. Az.
24 Jul 4.5 01:36:00 10° ENE 01:37:29 11° E 01:38:58 10° ESE visible
24 Jul 2.0 03:12:42 10° NNE 03:18:01 88° WNW 03:20:23 34° SSW visible
24 Jul 4.1 04:54:51 10° NNW 04:57:02 13° WNW 04:59:13 10° W visible
25 Jul 2.5 02:48:13 10° NNE 02:53:26 56° E 02:55:27 35° SSE visible
25 Jul 3.7 04:29:03 10° NNW 04:32:49 20° WNW 04:36:32 10° WSW visible
26 Jul 3.3 02:23:59 10° NNE 02:28:44 33° E 02:30:32 26° SE visible
26 Jul 3.1 04:03:53 10° N 04:08:30 32° WNW 04:11:36 18° WSW visible
27 Jul 3.9 02:00:07 10° NE 02:03:57 20° E 02:05:36 18° ESE visible
27 Jul 2.4 03:38:59 10° N 03:44:06 51° WNW 03:46:40 27° SW visible
28 Jul 4.5 01:37:18 10° ENE 01:39:06 12° E 01:40:40 10° ESE visible
28 Jul 2.0 03:14:18 10° NNE 03:19:35 85° WNW 03:21:44 37° SSW visible
28 Jul 4.1 04:56:37 10° NW 04:58:35 12° WNW 05:00:34 10° W visible
29 Jul 2.4 02:49:48 10° NNE 02:55:00 58° E 02:56:48 38° SSE visible
29 Jul 3.7 04:30:42 10° NNW 04:34:23 20° WNW 04:37:53 11° WSW visible
30 Jul 3.2 02:25:32 10° NNE 02:30:20 35° E 02:31:52 29° SE visible
30 Jul 3.1 04:05:30 10° N 04:10:04 31° WNW 04:12:57 18° WSW visible
31 Jul 3.9 02:01:38 10° NE 02:05:34 21° E 02:06:57 19° ESE visible
31 Jul 2.4 03:40:35 10° N 03:45:39 50° WNW 03:48:01 29° SW visible
01 Aug 4.4 01:38:40 10° ENE 01:40:42 12° E 01:42:00 11° ESE visible
01 Aug 2.0 03:15:53 10° NNE 03:21:11 82° WNW 03:23:04 41° SSW visible
01 Aug 4.1 04:58:23 10° NW 05:00:09 12° WNW 05:01:54 10° WNW visible
02 Aug 2.4 02:51:22 10° NNE 02:56:35 60° E 02:58:08 42° SSE visible
02 Aug 3.7 04:32:22 10° NNW 04:35:56 19° WNW 04:39:13 11° WSW visible
